Location: Beneden-Haastrecht
(52.0012°N, 4.7557°E)
Time: 03:32:43
(UTC+00:00)

SeaSat 1 - Pass Details

Date: 24 October 2020
Orbit: 744 x 747 km, 108.0° (Epoch: 24 November)

Event Time Altitude Azimuth Distance (km) Brightness Sun altitude
Exits shadow 18:14:54 19° 136° (SE) 1,708 3.9 -17.2°
Maximum altitude 18:18:24 71° 55° (NE) 791 2.4 -17.7°
Drops below altitude 10° 18:23:20 10° 332° (NNW) 2,276 5.4 -18.5°
Sets 18:25:37 0° 331° (NNW) 3,205 6.2 -18.8°
